Stove Prairie

Current Conditions

Time04/08/2020 12:30 PM MST
Location40.619167,-105.356944
Elevation7,349 FT
Air Temp54°F
Surface Temp86°F
Dew Point Temp17°F
Relative Humidity23%
Visibility6,562 FT
Pressure777 MB
PrecipitationNone

Click a photo to enlarge.

327°9 mph
Wind from @ 9 mph

Past 24 Hours

All Data

Previous 24h observations for Stove Prairie
Time Air Temp
(°F)
Surface
(°F)
Dew Point
(°F)
Relative
Humidity
Precip. Wind Direction Wind Speed (mph) Visibility (ft) Pressure
(mb)
12:30 PM54861723NoneNNW96,562777
12:15 PM54841723NoneNW106,562777
12:00 PM54821723NoneNW86,562777
11:45 AM54811925NoneNNW96,562777
11:30 AM53771926NoneNNW96,562777
11:15 AM52731926NoneNW76,562778
11:00 AM52672028NoneNW46,562777
10:45 AM52692027NoneWNW46,562778
10:30 AM51642029NoneWNW76,562777
10:15 AM48541931NoneNW66,562777
10:00 AM48551931NoneNNW106,562777
09:45 AM49592031NoneNNW66,562777
09:30 AM49602032NoneNNW56,562777
09:15 AM49552032NoneNNW66,562777
09:00 AM47522034NoneESE36,562777
08:45 AM47482034NoneENE26,562777
08:30 AM47462035NoneNNE36,562777
08:15 AM46441934NoneESE36,562777
08:00 AM44412039NoneSE26,562777
07:45 AM44421937NoneWNW26,562777
07:30 AM42361940NoneN26,562777
07:15 AM40391941NoneNNE26,562777
07:00 AM38391945NoneN06,562777
06:45 AM37391947NoneSW26,562776
06:30 AM37381847NoneN06,562776
06:15 AM38391845NoneN26,562776
06:00 AM37371845NoneNNW26,562776
05:45 AM38371844NoneN56,562776
05:30 AM36351847NoneN46,562776
05:15 AM37391744NoneWNW26,562776
05:00 AM36371645NoneNNW36,562776
04:45 AM36391643NoneN06,562776
04:30 AM36371643NoneNW26,562776
04:15 AM37381541NoneNNW36,562775
04:00 AM38411539NoneWNW16,562775
03:45 AM40411536NoneNNW16,562775
03:30 AM39381537NoneE16,562775
03:15 AM39391536NoneWNW26,562775
03:00 AM39391436NoneNW36,562775
02:45 AM42411432NoneNNW26,562775
02:30 AM43441431NoneNNE56,562775
02:15 AM41431433NoneNNW36,562775
02:00 AM39401437NoneN36,562775
01:45 AM40441333NoneENE16,562775
01:30 AM41421433NoneNNE16,562775
01:15 AM41421433NoneN26,562775
01:00 AM43431430NoneN36,562775
12:45 AM43421431NoneENE16,562775
12:30 AM43441329NoneN06,562775
12:15 AM44451227NoneSE26,562775
12:00 AM46451125NoneN06,562775
11:45 PM45431125NoneNNE26,562775
11:30 PM47441122NoneNNW46,562775
11:15 PM49471021NoneNNW56,562775
11:00 PM46461022NoneNW36,562775
10:45 PM4948919NoneNW56,562775
10:30 PM4749921NoneNW36,562775
10:15 PM4648922NoneNNE26,562775
10:00 PM4749921NoneE26,562775
09:45 PM4850920NoneN06,562775
09:30 PM5050919NoneWNW26,562775
09:15 PM5051819NoneWNW46,562775
09:00 PM5051818NoneW36,562775
08:45 PM5052818NoneS26,562775
08:30 PM5153817NoneWNW16,562775
08:15 PM5154716NoneNW26,562775
08:00 PM5254716NoneWSW46,562775
07:45 PM5255716NoneWSW26,562774
07:30 PM5357715NoneNW36,562774
07:15 PM5457715NoneNNW76,562774
07:00 PM5459815NoneWNW56,562774
06:45 PM5560915NoneNNW116,562774
06:30 PM56631016NoneNW86,562774
06:15 PM56631015NoneNW66,562774
06:00 PM5763915NoneNW96,562774
05:45 PM5764915NoneNW76,562774
05:30 PM5766914NoneNW96,562774
05:15 PM5771914NoneNW116,562773
05:00 PM58741015NoneNW96,562773
04:45 PM58781115NoneW46,562774
04:30 PM58801015NoneWNW86,562773
04:15 PM58811115NoneNW116,562773
04:00 PM57841116NoneNW106,562773
03:45 PM58891216NoneNNW106,562774
03:30 PM58921115NoneNNW146,562773
03:15 PM59941316NoneWNW46,562774
03:00 PM59951518NoneW36,562774
02:45 PM58941417NoneWNW46,562774
02:30 PM59941518NoneW46,562774
02:15 PM58941417NoneNW46,562774
02:00 PM59931517NoneWNW76,562774
01:45 PM57931418NoneWNW66,562774
01:30 PM57911418NoneWSW66,562774
01:15 PM55901419NoneNW116,562774
01:00 PM55891419NoneNW86,562775
12:45 PM55881419NoneNW116,562775

Red Feather Lakes

Current Conditions

Time04/08/2020 12:30 PM MST
Location40.790278,-105.574167
Elevation8,238 FT
Air Temp48°F
Surface Temp76°F
Dew Point Temp15°F
Relative Humidity25%
Visibility6,562 FT
Pressure752 MB
PrecipitationNone

Click a photo to enlarge.

318°16 mph
Wind from @ 16 mph

Past 24 Hours

All Data

Previous 24h observations for Red Feather Lakes
Time Air Temp
(°F)
Surface
(°F)
Dew Point
(°F)
Relative
Humidity
Precip. Wind Direction Wind Speed (mph) Visibility (ft) Pressure
(mb)
12:30 PM48761525NoneNW166,562752
12:15 PM48751526NoneWNW156,562752
12:00 PM47741628NoneWNW176,562752
11:45 AM46751629NoneWNW286,562752
11:30 AM46701630NoneNW256,562752
11:15 AM46691832NoneWNW176,562752
11:00 AM44621733NoneNW196,562752
10:45 AM45661834NoneNW196,562752
10:30 AM44661835NoneNW196,562752
10:15 AM44641836NoneNW156,562752
10:00 AM44601835NoneWNW206,562752
09:45 AM43561837NoneNW146,562752
09:30 AM42551837NoneNW146,562752
09:15 AM42511837NoneNW196,562752
09:00 AM42481839NoneNNW126,562751
08:45 AM41451940NoneNW116,562752
08:30 AM40411941NoneNW166,562751
08:15 AM40381942NoneNW146,562751
08:00 AM40351943NoneNNW136,562751
07:45 AM39331944NoneNW76,562751
07:30 AM38331946NoneN56,562751
07:15 AM38331947NoneN96,562751
07:00 AM36291948NoneN06,562751
06:45 AM37331947NoneNE46,562751
06:30 AM37341948NoneNE56,562751
06:15 AM38351947NoneENE46,562751
06:00 AM37332049NoneENE36,562751
05:45 AM37342049NoneENE66,562750
05:30 AM37342050NoneNE106,562750
05:15 AM37341950NoneNE96,562750
05:00 AM37351949NoneNNE86,562750
04:45 AM36351950NoneNE96,562750
04:30 AM37351949NoneNE96,562750
04:15 AM36351949NoneNE96,562750
04:00 AM37351948NoneENE86,562750
03:45 AM38371946NoneN76,562750
03:30 AM38361947NoneNNE86,562750
03:15 AM37371948NoneNNE116,562750
03:00 AM37371947NoneNNE96,562750
02:45 AM38371946NoneNNE106,562750
02:30 AM38381843NoneNNE106,562750
02:15 AM39371842NoneN76,562750
02:00 AM40381740NoneNNW76,562750
01:45 AM40391739NoneNW116,562750
01:30 AM40391738NoneNNW96,562750
01:15 AM40411637NoneNNW126,562750
01:00 AM40421435NoneNNW96,562750
12:45 AM39421435NoneN26,562750
12:30 AM39421436NoneNNW26,562750
12:15 AM38411538NoneNNW26,562750
12:00 AM38421538NoneN46,562750
11:45 PM39401843NoneENE26,562750
11:30 PM40441637NoneNNE56,562750
11:15 PM39431639NoneN56,562750
11:00 PM40421638NoneNE26,562750
10:45 PM40431638NoneE26,562750
10:30 PM42441634NoneESE46,562750
10:15 PM44451632NoneNNW56,562750
10:00 PM44451632NoneWNW46,562750
09:45 PM44461631NoneWNW76,562750
09:30 PM44471531NoneWNW76,562750
09:15 PM44471531NoneWNW86,562749
09:00 PM45471530NoneWNW96,562749
08:45 PM44471531NoneWNW136,562749
08:30 PM45481530NoneW196,562749
08:15 PM45501429NoneW196,562749
08:00 PM45511428NoneW156,562749
07:45 PM46521225NoneWNW136,562749
07:30 PM47541022NoneWNW156,562749
07:15 PM4756921NoneWNW196,562749
07:00 PM49591020NoneWNW236,562749
06:45 PM49611021NoneW256,562749
06:30 PM49651020NoneW186,562749
06:15 PM50681020NoneWNW196,562749
06:00 PM51711019NoneW136,562749
05:45 PM51731019NoneW256,562749
05:30 PM51751019NoneWNW246,562749
05:15 PM51781120NoneW206,562749
05:00 PM51801120NoneW216,562749
04:45 PM53831320NoneWSW156,562749
04:30 PM52831220NoneW196,562749
04:15 PM52851220NoneWNW176,562748
04:00 PM51851321NoneW276,562749
03:45 PM51861221NoneW226,562749
03:30 PM51861221NoneW336,562749
03:15 PM50871221NoneW316,562749
03:00 PM51891221NoneW236,562749
02:45 PM51891221NoneW286,562749
02:30 PM50891121NoneWSW326,562749
02:15 PM49881121NoneW316,562749
02:00 PM50891020NoneWSW256,562749
01:45 PM49881121NoneW286,562749
01:30 PM48871122NoneW286,562749
01:15 PM49861222NoneW276,562749
01:00 PM48841223NoneWNW306,562750
12:45 PM47841123NoneWNW226,562750

Pinewood Reservoir

Current Conditions

Time04/08/2020 12:30 PM MST
Location40.3647,-105.2867
Elevation6,580 FT
Air Temp54°F
Surface Temp83°F
Dew Point Temp22°F
Relative Humidity28%
Visibility6,562 FT
Pressure793 MB
PrecipitationNone
Level of Grip82.0
State of Surface4.0

Click a photo to enlarge.

76°9 mph
Wind from @ 9 mph

Past 24 Hours

All Data

Previous 24h observations for Pinewood Reservoir
Time Air Temp
(°F)
Surface
(°F)
Dew Point
(°F)
Relative
Humidity
Precip. Wind Direction Wind Speed (mph) Visibility (ft) Pressure
(mb)
Level of GripState Surface
12:30 PM54832228NoneENE96,562793824
12:15 PM53772230NoneNE36,562793824
12:00 PM53852229NoneNE126,562793824
11:45 AM54862330NoneESE116,562794824
11:30 AM53852230NoneESE106,562794824
11:15 AM51782231NoneE66,562794824
11:00 AM50782232NoneNE146,562794824
10:45 AM51792231NoneENE156,562794824
10:30 AM51772130NoneENE136,562794824
10:15 AM52761624NoneESE66,562794824
10:00 AM52731624NoneSE86,562794824
09:45 AM52721624NoneSSE96,562794824
09:30 AM52681523NoneSW46,562793824
09:15 AM52651523NoneSW26,562793824
09:00 AM51621624NoneSE36,562793824
08:45 AM50581828NoneWSW46,562793824
08:30 AM48551830NoneSW36,562793824
08:15 AM49511626NoneS36,562793824
08:00 AM46511427NoneSE36,562793824
07:45 AM44481329NoneW36,562793824
07:30 AM41451230NoneWNW36,562793824
07:15 AM40431332NoneSSE36,562793824
07:00 AM45431225NoneSW26,562792824
06:45 AM41401231NoneS26,562792824
06:30 AM43411127NoneSSE56,562792824
06:15 AM43411228NoneSW36,562792824
06:00 AM43401126NoneSSE26,562792824
05:45 AM45421124NoneS16,562792824
05:30 AM44421126NoneW66,562792824
05:15 AM45421125NoneSW76,562792824
05:00 AM44421126NoneSW86,562792824
04:45 AM42421229NoneSW76,562791824
04:30 AM43421228NoneWSW66,562791824
04:15 AM43421229NoneSW66,562791824
04:00 AM43421228NoneSW76,562791824
03:45 AM45431125NoneSW56,562791824
03:30 AM46441125NoneSW66,562791824
03:15 AM46441124NoneWSW76,562791824
03:00 AM46441124NoneWSW66,562791824
02:45 AM46441124NoneWSW46,562791824
02:30 AM48461122NoneWSW46,562791824
02:15 AM44451126NoneSSW46,562791824
02:00 AM46451123NoneWSW46,562791824
01:45 AM47451022NoneSW46,562791824
01:30 AM50471019NoneWSW46,562791824
01:15 AM45451023NoneSW56,562791824
01:00 AM4646922NoneSSW66,562791824
12:45 AM4647922NoneSSW46,562791824
12:30 AM4846921NoneWSW36,562791824
12:15 AM4847819NoneW46,562791824
12:00 AM48471020NoneSW46,562791824
11:45 PM4749719NoneSSW46,562791824
11:30 PM48471021NoneWSW46,562791824
11:15 PM4749720NoneW26,562791824
11:00 PM4850819NoneWSW26,562791824
10:45 PM4850920NoneSSW56,562791824
10:30 PM48491021NoneWSW76,562791824
10:15 PM51501120NoneWSW116,562791824
10:00 PM5151918NoneWSW96,562791824
09:45 PM4952920NoneWSW106,562791824
09:30 PM49511020NoneSW96,562791824
09:15 PM50541019NoneWSW76,562791824
09:00 PM51541019NoneSW46,562791824
08:45 PM5456816NoneW76,562791824
08:30 PM50551019NoneSW96,562790824
08:15 PM5258817NoneWSW66,562790824
08:00 PM5359816NoneSSW36,562790824
07:45 PM5460816NoneSSW46,562790824
07:30 PM5561814NoneWSW56,562790824
07:15 PM5863813NoneWSW56,562790824
07:00 PM5965712NoneWSW156,562790824
06:45 PM5967712NoneWSW176,562790824
06:30 PM6069712NoneSW206,562789824
06:15 PM6072712NoneSW236,562789824
06:00 PM6174711NoneWSW196,562789824
05:45 PM6176712NoneWSW216,562789824
05:30 PM6178711NoneWSW236,562789824
05:15 PM6181711NoneWSW206,562789824
05:00 PM6182712NoneWSW246,562789824
04:45 PM6183812NoneWSW346,562789824
04:30 PM62861013NoneWSW206,562789824
04:15 PM61871114NoneWSW306,562789824
04:00 PM62891214NoneSW266,562789824
03:45 PM61891113NoneWSW296,562789824
03:30 PM60891215NoneWSW306,562789824
03:15 PM61911114NoneSW236,562789824
03:00 PM61921315NoneSW326,562789824
02:45 PM60921316NoneWSW206,562790824
02:30 PM62941315NoneSW266,562789824
02:15 PM60941315NoneSW286,562789824
02:00 PM60921316NoneSW236,562790824
01:45 PM59921316NoneSW246,562790824
01:30 PM59921316NoneSW276,562790824
01:15 PM59911417NoneWSW246,562790824
01:00 PM59901317NoneSW286,562790824
12:45 PM58891317NoneSW286,562790824

Masonville

Current Conditions

Time04/08/2020 12:30 PM MST
Location40.4875,-105.2108
Elevation5,387 FT
Air Temp60°F
Surface Temp78°F
Dew Point Temp23°F
Relative Humidity24%
Visibility6,562 FT
Pressure834 MB
PrecipitationNone

Click a photo to enlarge.

166°7 mph
Wind from @ 7 mph

Past 24 Hours

All Data

Previous 24h observations for Masonville
Time Air Temp
(°F)
Surface
(°F)
Dew Point
(°F)
Relative
Humidity
Precip. Wind Direction Wind Speed (mph) Visibility (ft) Pressure
(mb)
12:30 PM60782324NoneSSE76,562834
12:15 PM60762324NoneSSE76,562834
12:00 PM61782323NoneSSE116,562834
11:45 AM60782223NoneSSE146,562835
11:30 AM61792222NoneSSE66,562835
11:15 AM60792424NoneSE96,562835
11:00 AM59802426NoneSE66,562835
10:45 AM59842426NoneESE76,562835
10:30 AM58802326NoneSE76,562835
10:15 AM58742326NoneESE66,562835
10:00 AM57672428NoneSE86,562835
09:45 AM55622430NoneSSE96,562835
09:15 AM55612431NoneSSE76,562834
09:00 AM54632532NoneSSE66,562834
08:45 AM53612533NoneSSE56,562834
08:30 AM51582535NoneSSE66,562834
08:15 AM52552535NoneSSE36,562834
08:00 AM55552429NoneWNW66,562834
07:45 AM52522333NoneNW26,562834
07:30 AM49502133NoneENE26,562834
07:15 AM49472132NoneNW36,562834
07:00 AM49472032NoneN26,562834
06:45 AM48471932NoneNE46,562834
06:30 AM47461832NoneENE46,562834
06:15 AM48441830NoneWSW26,562833
06:00 AM49451828NoneWNW66,562833
05:45 AM51471826NoneN76,562833
05:30 AM46471732NoneNNW56,562833
05:15 AM46461732NoneNNW36,562833
05:00 AM43461836NoneSSE26,562833
04:45 AM44461835NoneNNW56,562833
04:30 AM42471837NoneN16,562833
04:15 AM41461838NoneSW36,562833
04:00 AM44471734NoneSW36,562833
03:45 AM43471735NoneWNW56,562833
03:30 AM46481732NoneW46,562833
03:15 AM44481834NoneE26,562833
03:00 AM47481729NoneN46,562833
02:45 AM46481730NoneNNW56,562832
02:30 AM47491729NoneNW76,562832
02:15 AM47501730NoneNNW56,562832
02:00 AM47501729NoneNNW76,562832
01:45 AM48511628NoneNNW96,562832
01:30 AM48511628NoneNNW96,562832
01:15 AM48511627NoneNNW116,562832
01:00 AM48511527NoneNNW96,562832
12:45 AM48521526NoneNNW96,562832
12:30 AM48521526NoneNNW106,562832
12:15 AM49531525NoneNNW100832
12:00 AM49531425NoneNNW86,562832
11:45 PM49541423NoneNNW86,562832
11:30 PM50551323NoneNNW86,562832
11:15 PM52561321NoneNNW46,562832
11:00 PM51561322NoneNW96,562832
10:45 PM54561319NoneN96,562832
10:30 PM53571320NoneNNW76,562832
10:15 PM53581320NoneNNW76,562832
10:00 PM53581219NoneNNW86,562832
09:45 PM55601319NoneNNW46,562832
09:30 PM55601319NoneNNW46,562832
09:15 PM55621218NoneNNW16,562832
09:00 PM56621218NoneNNW56,562831
08:45 PM57631317NoneNNW66,562831
08:30 PM58641317NoneNNW76,562831
08:15 PM58651317NoneNW66,562831
08:00 PM60671316NoneN66,562831
07:45 PM61681415NoneNNW36,562830
07:30 PM63701314NoneNW26,562830
07:15 PM65721011NoneNW36,562830
07:00 PM6775910NoneW86,562830
06:45 PM6778910NoneWSW106,562830
06:30 PM6880910NoneW76,562830
06:15 PM6882910NoneW126,562830
06:00 PM68851010NoneW106,562830
05:45 PM69871010NoneSW126,562830
05:30 PM69901010NoneSW96,562829
05:15 PM69921010NoneWSW126,562829
05:00 PM6994910NoneSSW106,562829
04:45 PM6932910NoneSW110830
04:30 PM69961010NoneSW156,562830
04:00 PM691001010NoneSW156,562830
03:45 PM691001010NoneWSW186,562829
03:31 PM691021010NoneSSW156,562830
03:15 PM681021111NoneSSW166,562830
03:00 PM691041311NoneSW116,562830
02:45 PM681051513NoneS176,562830
02:30 PM691061311NoneSW146,562830
02:15 PM691071412NoneWSW96,562830
02:00 PM691061513NoneWSW136,562830
01:45 PM681061513NoneWSW96,562830
01:30 PM681061513NoneWSW96,562830
01:15 PM681041714NoneSW46,562830
01:00 PM671031714NoneSW96,562831
12:45 PM671011714NoneSW76,562831

Time to refresh Minute(s) Second(s)